www.pogodaiklimat.ru
ПОГОДА в Тевризе

Архив погоды в Тевризе (Омская область, Россия)

Время
(UTC), дата
12 6.07
15 6.07
18 6.07
21 6.07
00 7.07
03 7.07
06 7.07
09 7.07
12 7.07
15 7.07
18 7.07
21 7.07
00 8.07
03 8.07
06 8.07
09 8.07
12 8.07
15 8.07
18 8.07
21 8.07
00 9.07
03 9.07
06 9.07
09 9.07
12 9.07
15 9.07
18 9.07
21 9.07
00 10.07
03 10.07
06 10.07
09 10.07
15 10.07
18 10.07
21 10.07
00 11.07
03 11.07
06 11.07
09 11.07
12 11.07
15 11.07
18 11.07
21 11.07
00 12.07
03 12.07
09 12.07
Ветер
(напр.,м/с)
Видим. Явления Облачность Т
(С)
Тd
(С)
f
(%)
Тe
(С)
Тes
(С)
Комфортность P
(гПа)
Po
(гПа)
Тmin
(С)
Tmax
(С)
R
(мм)
R24
(мм)
S
(см)
В 2 17 км в посл. час ливневой дождь 10/10 1000 м
[Cb cap]
+20.4 +20.2 99 +25 +25 комфорт 1011.6 1004.0
СЗ 2 8000 м слаб. ливневой дождь 10/10 600 м
[Cb cap]
+19.3 +19.3 100 +22 +22 комфорт 1010.8 1003.2 +22.0 4
С 1 10 км {ливн. дождь} 10/4 1000 м
[Cb cap Ac As Cs]
+19.1 +19.1 100 +22 +22 комфорт 1010.7 1003.1
СВ 1 10 км 10/0
[Ac lent Cs]
+18.4 +18.0 98 +20 +20 1010.5 1002.9
С 2 19 км 9/0
[Ac As Cs]
+16.5 +13.0 80 +17 +17 1011.2 1003.5
СВ 3 20 км 10/0
[Ac trans Cs]
+19.9 +13.4 66 +22 +26 комфорт 1010.6 1003.0 +16.5 0.1
СВ 4 20 км 6/0
[Ac trans Ci fib]
+23.4 +12.8 51 +26 +34 жарко 1010.1 1002.6
СВ 4 {10} 20 км 4/0
[Ci sp]
+25.2 +10.8 40 +26 +34 жарко 1009.8 1002.3
СВ 3 {10} 20 км 3/0
[Ci fib]
+25.3 +10.1 38 +26 +30 жарко 1009.1 1001.6
СВ 1 19 км ясно +22.6 +11.6 50 +25 +25 комфорт 1009.4 1001.9 +26.1
С 1 10 км ясно +15.2 +12.5 84 +16 +16 1010.2 1002.5
С 2 10 км 1/0
[Ci fib]
+15.2 +11.4 78 +15 +15 1010.6 1002.9
СВ 2 20 км ясно +14.9 +11.0 77 +15 +15 1011.6 1003.8
СВ 2 20 км 1/0
[Ci fib]
+19.6 +12.8 65 +22 +28 комфорт 1011.6 1004.0 +13.9
С 2 20 км 10/8 1000 м
[Cu med, cong Ci fib]
+22.0 +13.0 57 +25 +27 комфорт 1011.6 1004.0
С 4 20 км 10/9 1000 м
[Cu hum Ci fib]
+24.0 +13.3 51 +26 +27 жарко 1011.4 1003.9
СВ 3 20 км 9/9 1000 м
[Cu med, cong]
+23.8 +13.3 52 +26 +26 жарко 1011.5 1003.9
С 1 20 км 6/6 1000 м
[Sc diur, vesp]
+21.8 +15.5 67 +25 +25 комфорт 1011.7 1004.1 +25.2
СЗ 1 10 км 4/4 1000 м
[Cb cap]
+15.7 +15.7 100 +16 +16 1012.4 1004.7
С 2 10 км 1/0
[Ci fib]
+15.7 +13.3 86 +16 +16 1012.6 1004.9
С 1 20 км 1/0
[Ci fib]
+13.6 +13.6 100 +14 +14 1013.7 1005.9
СВ 2 20 км 3/0
[Ci]
+20.7 +14.4 67 +24 +30 комфорт 1014.4 1006.8 +10.9
С 4 20 км 9/8 1000 м
[Cu hum Ci]
+24.6 +13.0 48 +27 +28 жарко 1014.3 1006.7
С 3 20 км 8/8 1000 м
[Cu hum Ci fib]
+27.1 +11.4 38 +28 +30 жарко 1014.0 1006.6
С 2 20 км 10/4 600 м
[Cb cap Ac cast Ci fib]
+27.3 +13.0 41 +29 +30 жарко 1013.6 1006.2
З 1 20 км 8/8 1000 м
[Sc diur, vesp]
+23.2 +16.8 67 +28 +28 душно 1013.8 1006.3 +27.8
СЗ 2 10 км 4/4 1000 м
[Sc]
+18.2 +16.4 89 +19 +19 1014.4 1006.7
СЗ 2 10 км 9/3 1000 м
[Sc Ac trans Ci fib]
+16.3 +16.3 100 +16 +16 1014.2 1006.5
СЗ 1 20 км 1/0
[Ci fib]
+16.4 +16.4 100 +17 +18 1014.6 1006.8
С 2 19 км 3/0
[Ci fib]
+22.8 +15.1 62 +27 +33 душно 1015.0 1007.4 +14.8
С 3 18 км 8/3 600 м
[Cu hum Ci fib]
+26.1 +12.6 43 +28 +35 жарко 1014.5 1007.0
СЗ 3 20 км 9/8 600 м
[Cu hum Ci fib]
+28.2 +13.7 41 +30 +32 жарко 1013.5 1006.0
З 2 20 км 9/3 1000 м
[Sc diur, vesp Ci fib]
+25.1 +17.0 61 +29 +29 душно 1012.0 1004.5 +28.7
З 1 10 км 6/6 1000 м
[Sc]
+19.8 +16.9 83 +23 +23 комфорт 1011.5 1003.9
З 2 10 км 3/0
[Ci fib]
+15.6 +15.6 100 +15 +15 1011.1 1003.4
штиль 0 19 км 10/5 600 м
[Cu med, cong Cs]
+16.1 +16.1 100 +16 +16 1011.3 1003.4
З 3 20 км 9/0
[Ac lent]
+22.2 +20.4 90 +29 +30 очень душно 1010.8 1003.3 +14.1
СЗ 3 20 км 4/0
[Ac cast Ci fib]
+27.7 +19.6 61 +33 +42 очень душно 1009.7 1002.3
СЗ 5 9000 м гроза, ливневой дождь 8/8 600 м
[Cb cap]
+29.3 +18.9 54 +35 +36 очень душно 1007.9 1000.6
ЮЗ 3 {15} 8000 м гроза, ливневой дождь [макс. диам. градин мм] 10/10 600 м
[Cb cap]
+18.1 +18.1 100 +18 +18 1009.5 1001.7
С 2 7000 м дымка {гроза, ливн. дождь} 10/8 600 м
[Cb cap Ac cuf]
+19.5 +19.5 100 +23 +23 комфорт 1010.1 1002.5 +29.7 25
ЮЗ 3 4000 м гроза, ливневой дождь 10/8 600 м
[Cb cap Ac und]
+18.5 +18.5 100 +20 +20 1008.7 1001.1
СВ 1 4000 м дымка {гроза, ливн. дождь} 10/0
[Ci fib]
+16.7 +16.7 100 +18 +18 1007.2 999.3
ЮВ 1 7000 м дымка {гроза, ливн. дождь} 10/6 600 м
[Cb cap Ci sp]
+16.6 +16.6 100 +17 +18 1007.8 999.9
ЮВ 2 20 км гроза без осадков 10/8 600 м
[Cb cap Ci fib]
+20.6 +17.4 82 +25 +26 комфорт 1007.8 1000.2 +15.7 0.6
Ю 1 20 км 8/5 600 м
[Cb cap Ci sp]
+28.9 +19.7 58 +35 +42 очень душно 1006.1 998.8
Местоположение метеостанции Тевриз (Омская область, Россия): широта 57.52 долгота 72.40 высота над уровнем моря 67 м.
В архиве по умолчанию представлена погода в Тевризе за последнюю неделю. Архивные данные за месяц целиком и за предыдущие месяцы, начиная с января 2011 года, Вы можете получить, выбрав интересующий диапазон дат из раскрывающегося списка и нажав кнопку "Найти!".
*Определитесь, кто Вы:
Внимание! Время в таблицах - всемирное. Для получения местного времени необходимо прибавить поправку, которая равна 6 ч.
Некоторые строки с данными для отдельных станций могут быть выделены курсивом. Это означает, что фактические данные отсутствуют по различным причинам, а приведенные значения являются расчетными модельными данными для данного пункта наблюдений.
Смотрите также архив погоды в соседних городах и на ближайших метеорологических станциях:
Партнеры нашего сайта:      
Пояснения к столбцам:
  • Ветер - указаны скорость ветра в м/с - средняя за 10 мин, порывы в срок и между сроками (в фигурных скобках) и направление, откуда дует ветер: С - северный,
  • СВ - северо-восточный, В - восточный, ЮВ - юго-восточный, Ю - южный, ЮЗ - юго-западный, З - западный, СЗ - северо-западный.
  • Видимость - горизонтальная дальность видимости в метрах или километрах. При видимости от 1 до 10 км при отсутствии осадков обычно наблюдается дымка, при ухудшении видимости до 1 км и менее - туман. В сухую погоду видимость может ухудшаться дымом, пылью или мглою.
  • Явления - указаны атмосферные явления, наблюдавшиеся в срок или в последний час перед сроком; фигурными скобками обозначены явления, наблюдавшиеся между сроками (за 1-3 часа до срока); квадратными скобками обозначены град или гололедные отложения с указанием их диаметра в мм.
  • Облачность - указаны через наклонную черту общая и нижняя облачность в баллах и высота нижней границы облаков в метрах; квадратными скобками обозначены формы облаков: Ci - перистые, Cs - перисто-слоистые, Cc - перисто-кучевые, Ac - высококучевые, As - высокослоистые, Sc - слоисто-кучевые, Ns - слоисто-дождевые, Cu - кучевые, Cb - кучево-дождевые. Подробнее классификацию облаков см. в Атласе облаков (PDF).
  • T - Температура воздуха - температура, измеренная на высоте 2 м над землей.
  • Td - Температура точки росы - температура, при понижении до которой содержащийся в воздухе водяной пар достигнет насыщения.
  • f - Относительная влажность воздуха - влажноcть воздуха, измеренная на высоте 2 м над землей.
  • Te - Эффективная температура - температура, которую ощущает одетый по сезону человек в тени. Характеристика душности погоды. При расчете учитывается влияние влажности воздуха и скорости ветра на теплоощущения человека.
  • Tes - Эффективная температура на солнце - температура, которую ощущает человек, с поправкой на солнечный нагрев. Характеристика знойности погоды. Зависит от высоты солнца над горизонтом, облачности и скорости ветра. Ночью, в пасмурную погоду, а также при ветре 12 м/с и более поправка равна нулю.
  • P - Атмосферное давление - приведенное к уровню моря атмосферное давление.
  • Po - Атмосферное давление - измеренное на уровне метеостанции атмосферное давление.
  • Tmin - Минимальная температура - минимум температуры воздуха на высоте 2 м над землей.
  • Tmax - Максимальная температура - максимум температуры воздуха на высоте 2 м над землей.
  • R - Количество осадков - Количество выпавших осадков за период времени, мм. При наведении курсора мыши на число - период времени, за который выпало указанное количество осадков.
  • R24 - Количество осадков - Количество выпавших осадков за 24 часа, мм.
  • S - Снежный покров - Высота снежного покрова, см. При наведении курсора мыши на число - состояние снежного покрова и степень покрытия местности в баллах.